星链-2702 (STARLINK-2702 )

导读 | 星芒AI

STARLINK-2702 是 SpaceX Starlink 项目中的一颗低轨通信卫星,属于第 27 批部署的星链卫星之一。该卫星于 2023 年发射,旨在为全球用户提供高速、低延迟的互联网服务。它运行在约 550 公里的轨道高度,采用先进推进系统和激光通信技术,以提升网络效率和稳定性。作为星链星座的一部分,STARLINK-2702 有助于扩大卫星互联网覆盖范围,特别是在偏远和网络基础设施薄弱的地区。

基本信息
目录编号:
48441
目录名称:
STARLINK-2702
国际标识:
2021-040P
轨道中心:
EARTH
卫星名称:
星链-2702
卫星全名:
星链-2702 (STARLINK-2702 )
卫星状态:
在轨 (已飞行1684 天)
发射日期:
2021-05-09 UTC
国别 :
美国 (US)
星等 :
--
轨道信息
数据来源 国际轨道数据 AOE轨道数据
星历时间 2025-12-18T04:55:43+0800
14小时前
查看轨道信息
2025-12-13T19:00:00+0800
5天前
查看轨道信息
半长轴 6925.326km 6925.369km
偏心率 0.0001712 0.0001646
轨道倾角 53.054° 53.051°
近地点辐角 92.608° 54.530°
升交点赤经 188.909° 208.727°
平近点角 267.511° 116.725°
近地点 546.005km 546.094km
远地点 548.377km 548.374km
周期 95.592分钟 95.593分钟
每日圈数 15.064074 15.063934
详细信息
固有亮度:
5
最大亮度:
2.5
卫星平台:
Starlink V1.0
覆盖范围:
全球
运营商:
太空探索技术公司
运营商所在国:
美国
制造商(研发单位):
太空探索技术公司
制造商所在国:
美国
使用方式:
暂无
卫星简介
星链(Starlink)计划是由太空探索技术公司(SpaceX)提出的一个巨型低轨卫星互联网星座项目,计划在2019年至2024年间在太空搭建由约1.2万颗卫星组成的“星链”网络,其中1584颗将部署在地球上空550千米处的近地轨道,并从2020年开始工作。该卫星仍在工作。
2D轨道图
3D轨道图
轨道高度分析图
轨道倾角分析图
轨道综合分析图
查看轨道综合分析图